Location: Unspecified
(52.4292°N, 19.3359°E)
Time: 14:11:20
(UTC+02:00)

Vanguard 1 Rocket - All Passes

Search period start: 19 May 2024 00:00
Search period end: 29 May 2024 00:00
Orbit: 651 x 4220 km, 34.3° (Epoch: 18 May)

Date Brightness Start Highest point End Pass type
(mag) Time Alt. Az. Time Alt. Az. Time Alt. Az.
19 May - 08:03:29 10° SSE 08:07:49 11° SE 08:11:41 10° SE daylight
19 May - 10:22:00 10° SSW 10:34:12 23° SSE 10:42:11 10° ESE daylight
19 May - 12:49:36 10° SW 12:59:36 26° S 13:05:51 10° SE daylight
19 May - 15:19:30 10° WSW 15:23:18 14° SSW 15:26:22 10° S daylight
20 May - 09:09:12 10° SSW 09:21:28 20° SSE 09:30:05 10° ESE daylight
20 May - 11:35:10 10° SW 11:47:34 28° S 11:55:09 10° ESE daylight
20 May - 14:04:29 10° WSW 14:12:08 21° SSW 14:17:17 10° SSE daylight
21 May - 07:58:05 10° S 08:08:30 16° SSE 08:16:39 10° ESE daylight
21 May - 10:20:57 10° SW 10:35:06 28° S 10:43:57 10° ESE daylight
21 May - 12:49:43 10° WSW 13:00:33 27° SSW 13:07:12 10° SE daylight
21 May - 15:20:50 10° WSW 15:24:05 12° SW 15:26:48 10° SSW daylight
22 May - 06:52:01 10° SSE 06:55:27 11° SE 06:58:41 10° SE daylight
22 May - 09:07:22 10° SSW 09:22:15 25° SSE 09:32:10 10° ESE daylight
22 May - 11:34:52 10° SW 11:48:29 31° S 11:56:35 10° SE daylight
22 May - 14:05:04 10° WSW 14:12:58 21° SSW 14:18:18 10° SSE daylight
23 May - 07:55:02 10° S 08:09:06 21° SSE 08:19:25 10° ESE daylight
23 May - 10:20:10 10° SW 10:35:56 32° S 10:45:30 10° ESE daylight
23 May - 12:49:54 10° WSW 13:01:25 28° SSW 13:08:25 10° SE daylight
23 May - 15:22:42 10° SW 15:24:44 11° SW 15:26:34 10° SSW daylight
24 May - 06:45:01 10° S 06:55:53 15° SE 07:04:51 10° ESE daylight
24 May - 09:06:00 10° SSW 09:22:57 30° SSE 09:33:53 10° ESE daylight
24 May - 11:34:42 10° WSW 11:49:20 33° S 11:57:54 10° SE daylight
24 May - 14:05:44 10° WSW 14:13:42 20° SSW 14:19:09 10° SSE daylight
25 May - 07:52:51 10° SSW 08:09:39 26° SSE 08:21:30 10° ESE daylight
25 May - 10:19:35 10° SW 10:36:42 35° S 10:46:54 10° ESE daylight
25 May - 12:50:08 10° WSW 13:02:11 28° SSW 13:09:31 10° SSE daylight
26 May - 06:41:26 10° S 06:56:13 20° SE 07:07:52 10° ESE daylight
26 May - 09:04:58 10° SW 09:23:35 34° SSE 09:35:22 10° ESE daylight
26 May - 11:34:36 10° WSW 11:50:05 34° SSW 11:59:07 10° SE daylight
26 May - 14:06:30 10° WSW 14:14:18 18° SW 14:19:46 10° S daylight
27 May - 05:33:17 10° SSE 05:42:55 14° SE 05:51:30 10° ESE daylight
27 May - 07:51:15 10° SSW 08:10:06 30° SSE 08:23:11 10° ESE daylight
27 May - 10:19:11 10° WSW 10:37:24 38° S 10:48:10 10° ESE daylight
27 May - 12:50:26 10° WSW 13:02:49 28° SSW 13:10:27 10° SSE daylight
28 May - 06:38:57 10° S 06:56:28 25° SSE 07:10:01 10° ESE daylight
28 May - 09:04:12 10° SW 09:24:09 37° S 09:36:42 10° ESE daylight
28 May - 11:34:36 10° WSW 11:50:44 35° SSW 12:00:12 10° SE daylight
28 May - 14:07:26 10° WSW 14:14:46 17° SW 14:20:06 10° S daylight
